Wetbulb
55.53 55.51 55.51 55.75 55.97 55.95 56.11 56.39 55.83 53.78 53.33 53.36 53.76 53.09 53.74 53.94 54.02 51.71 52.63 56.24 53.55 50.08 49.75 51.34 51.00 47.38 47.39 47.27 42.87 46.05 45.58 45.31 44.30 39.86 37.48 38.15 37.28 39.54 37.56 39.69 38.69 35.78 34.15 33.60 35.46 33.08 33.42 54.06 53.77 48.81 51.71 56.37 55.91 56.58
54.97 55.11 54.99 55.21 55.29 55.49 55.71 55.69 54.39 53.03 53.16 53.47 53.53 53.17 54.02 53.76 53.72 53.10 51.09 55.45 56.42 52.03 50.05 52.90 52.30 53.09 52.99 51.95 47.95 48.36 46.16 45.58 44.23 39.71 38.84 39.77 37.40 38.73 38.13 33.82 43.33 38.38 40.74 37.64 41.27 41.65 49.97 53.35 53.54 54.90 55.64 54.01 54.82 55.57
54.55 54.55 54.61 54.83 54.83 54.91 55.61 55.17 53.32 52.61 53.31 53.61 53.30 53.50 53.86 53.87 53.54 52.54 51.13 54.12 54.31 50.47 49.40 48.31 47.83 52.18 53.05 53.15 53.25 46.60 47.69 48.79 44.41 45.59 41.83 39.42 36.25 40.56 34.88 38.05 40.41 43.97 44.81 41.16 42.19 47.36 49.71 51.79 53.78 55.13 55.97 56.07 55.26 56.28
54.09 54.03 54.19 54.15 54.31 54.78 55.06 53.85 52.80 52.98 53.61 53.57 53.60 53.59 53.20 54.04 53.36 52.64 52.08 55.90 53.94 51.67 45.89 47.02 53.80 51.35 54.97 54.06 54.70 53.14 49.00 48.49 46.95 45.12 41.33 39.38 37.29 41.93 38.14 40.03 38.29 40.80 42.67 39.57 43.52 44.14 49.43 50.50 52.48 53.14 55.17 56.69 56.76 57.10
53.43 53.45 53.42 53.63 54.00 54.68 54.11 53.01 52.96 53.63 53.57 53.71 53.78 53.62 53.31 53.82 52.93 52.15 53.89 56.83 56.97 50.68 45.81 47.61 51.07 52.44 52.68 53.29 53.08 52.16 49.43 47.11 44.40 41.34 39.27 37.98 40.80 39.55 40.92 38.94 37.82 41.52 38.96 37.48 39.55 42.45 44.71 47.51 50.78 53.51 53.49 54.45 56.06 56.52
52.86 52.96 53.22 53.59 54.10 54.00 53.09 52.33 53.37 53.39 53.47 53.82 53.98 53.61 53.55 53.33 52.48 53.69 50.78 55.79 53.96 55.27 48.46 44.64 50.83 50.06 51.30 52.76 52.10 50.94 50.60 49.80 47.41 43.65 41.01 41.83 43.85 40.30 35.97 34.81 41.20 43.25 43.08 43.90 41.41 44.49 45.87 48.32 51.82 52.41 52.44 53.43 54.79 55.91
52.68 53.02 53.29 53.86 53.58 52.65 51.92 52.57 52.90 53.19 53.46 53.25 53.11 52.98 52.75 52.65 52.11 50.92 48.72 50.95 51.67 54.04 48.89 45.62 45.91 49.98 51.29 51.11 50.57 50.68 51.31 49.54 48.84 47.66 44.01 42.05 41.26 41.06 39.02 33.56 40.31 42.33 43.50 44.04 45.66 45.87 46.06 50.63 48.94 51.33 51.82 52.98 54.83 56.74
52.68 52.88 53.55 53.55 52.82 52.31 52.62 52.64 52.73 52.91 53.08 52.77 52.54 52.01 52.13 51.73 51.16 51.43 53.94 52.06 52.00 51.10 50.73 44.75 45.94 46.20 50.59 46.10 45.54 50.99 48.05 48.31 49.32 47.23 46.03 42.91 41.69 41.53 36.49 39.73 43.15 43.45 43.52 44.70 45.29 47.87 49.43 50.44 50.38 49.64 51.23 53.23 53.41 54.97
53.44 53.54 52.99 52.32 51.95 52.19 52.48 52.63 52.79 52.74 52.47 52.17 51.87 51.53 51.46 50.55 50.13 52.72 52.76 53.59 54.74 52.02 45.56 47.29 44.62 42.41 49.62 47.10 49.64 48.70 49.20 44.67 49.00 44.94 44.72 43.39 41.95 37.63 40.50 41.86 42.80 42.32 42.36 42.96 45.11 47.41 48.52 48.10 47.33 48.48 49.82 51.14 51.86 53.16
52.86 52.32 51.90 51.79 52.29 52.17 52.47 52.84 52.52 51.94 51.48 51.71 50.82 49.52 47.05 51.98 52.17 52.06 51.15 48.88 48.58 50.16 49.29 45.52 50.73 45.72 49.28 47.08 47.04 47.03 48.54 44.80 41.53 44.08 45.94 40.98 38.96 42.88 44.46 43.08 41.64 42.40 44.27 45.01 42.92 43.11 44.66 46.00 45.31 47.18 48.92 50.26 51.87 52.70
52.03 51.58 51.58 52.21 52.19 52.38 52.58 52.13 51.58 50.78 50.67 50.78 49.82 47.73 51.22 53.30 51.37 49.16 44.85 43.89 45.69 43.77 46.85 47.54 48.66 47.09 51.60 45.72 45.30 48.56 45.21 45.77 39.55 42.68 41.57 39.66 38.75 40.84 44.25 41.00 41.73 42.58 42.86 43.18 43.76 43.68 44.55 45.55 45.63 46.86 48.25 50.45 51.58 52.25
51.78 51.78 52.05 52.24 52.22 52.64 52.03 51.41 50.90 50.94 53.00 51.78 52.23 52.40 51.70 48.39 46.34 43.53 42.03 45.19 43.64 41.99 48.35 46.67 48.56 50.04 50.27 52.38 47.63 46.89 43.91 45.05 38.59 46.35 41.36 36.56 40.47 43.41 43.56 42.28 42.22 42.49 43.26 43.02 43.61 43.30 44.66 45.45 46.24 48.07 48.99 49.32 51.13 52.07
51.86 51.86 52.07 52.24 52.64 52.23 51.80 51.28 51.13 51.49 52.81 54.56 52.41 47.88 46.24 45.62 38.31 39.12 35.72 39.48 40.50 47.48 50.75 49.00 46.22 48.66 50.21 50.42 47.48 46.64 42.57 41.47 46.93 41.69 38.66 39.38 43.72 45.06 45.18 43.36 43.41 43.54 44.49 44.43 44.41 45.39 46.02 46.36 47.09 46.89 46.96 48.32 49.13 50.54
51.52 51.80 51.88 52.21 52.38 51.95 51.67 51.26 51.65 52.87 53.00 50.07 46.67 37.23 42.41 41.22 42.37 44.17 44.67 47.05 50.70 51.83 49.94 49.95 47.57 48.23 49.96 46.75 46.58 42.42 45.41 45.92 37.77 35.19 36.00 41.36 44.46 45.92 46.14 46.90 45.77 44.48 45.30 43.97 44.62 45.39 45.62 45.97 46.24 47.34 47.82 48.09 47.90 47.91
51.31 51.60 52.05 52.22 52.18 51.66 51.67 51.08 51.51 53.09 51.93 48.49 48.87 40.19 44.14 48.81 50.71 50.16 53.49 52.54 53.84 52.99 51.07 48.99 47.85 48.44 46.21 44.54 45.21 44.01 40.45 35.78 35.60 35.47 42.41 44.79 46.51 46.89 46.53 47.65 47.18 46.95 47.08 46.71 45.90 45.53 45.76 46.49 46.96 47.01 47.79 48.25 47.62 48.46
51.33 51.24 51.94 52.10 51.95 51.62 51.05 50.45 51.65 53.34 50.74 47.87 48.52 45.83 46.32 47.85 46.28 47.82 50.31 50.25 54.31 50.94 49.72 48.22 44.39 42.08 42.32 43.94 41.44 39.38 37.08 34.18 39.15 43.45 46.21 47.11 47.15 47.45 47.47 48.14 48.09 47.93 46.56 46.89 47.61 47.45 47.63 47.25 47.01 47.40 48.82 48.72 48.00 48.17
49.83 52.24 51.97 51.63 51.29 50.77 50.74 50.87 51.24 49.12 46.40 45.92 42.91 47.70 45.59 47.73 45.77 47.14 48.67 48.70 52.15 49.36 45.21 44.66 41.05 39.52 45.17 40.26 37.57 39.71 38.68 41.25 44.09 46.04 47.55 48.01 47.32 47.41 48.08 48.53 48.73 48.34 47.80 47.36 47.48 46.61 46.39 48.17 48.15 47.24 46.04 47.61 48.25 48.77
52.16 51.51 51.72 50.99 50.79 50.22 49.91 49.64 48.63 47.07 43.11 44.91 42.68 43.86 44.83 45.67 45.22 45.87 48.02 49.81 48.61 47.32 46.27 42.26 43.88 37.01 35.40 34.54 36.34 41.77 43.38 45.38 46.59 46.86 46.98 47.91 48.22 48.22 48.71 47.91 48.36 48.07 47.66 47.37 46.03 46.41 45.62 45.14 45.96 46.93 46.72 47.57 47.84 47.92
52.26 51.69 51.31 50.99 51.71 50.68 48.71 48.30 49.31 44.28 44.23 45.45 45.60 46.13 46.19 45.95 47.92 48.91 48.95 49.65 50.39 50.86 47.66 42.99 37.74 34.86 36.98 41.30 41.02 43.22 44.26 44.78 44.28 45.55 46.55 48.26 48.38 48.04 48.01 48.72 48.85 48.22 47.04 46.44 45.06 43.81 44.76 45.26 44.94 44.90 44.36 45.09 45.26 45.47
51.38 51.27 51.35 51.82 51.92 49.82 47.70 48.08 51.63 48.19 43.92 44.12 46.64 45.14 46.41 46.14 46.94 48.83 48.23 48.85 48.44 45.97 42.84 39.52 39.09 41.61 41.88 43.89 45.59 45.81 45.78 46.47 45.74 44.09 44.57 46.56 47.49 47.31 46.63 46.14 45.44 46.57 47.58 47.81 46.76 44.20 47.24 45.67 47.15 45.09 44.93 44.71 45.15 44.47
50.91 50.91 51.55 51.38 52.77 52.19 51.75 49.20 49.60 49.70 46.51 44.26 46.55 47.17 43.53 45.90 45.78 45.58 45.34 48.19 44.26 42.64 40.98 43.56 44.19 46.79 48.82 48.98 49.22 47.64 47.11 47.01 46.01 45.19 43.47 43.09 45.58 45.32 45.60 45.94 46.86 45.66 44.33 45.04 44.18 43.55 43.96 43.21 43.68 44.87 45.56 44.71 45.52 45.38
52.74 51.62 51.49 52.30 49.59 51.69 50.77 55.11 52.51 51.24 48.76 46.53 46.20 44.70 42.90 43.54 44.67 44.38 47.42 43.16 43.27 44.06 45.75 45.29 45.88 47.09 48.37 48.57 49.09 49.19 50.06 48.55 46.46 44.65 45.19 45.83 44.78 44.48 44.42 44.74 44.90 44.13 44.35 43.97 44.18 43.97 44.27 44.10 43.24 45.50 45.07 45.46 46.07 44.85
51.64 52.73 51.83 52.12 49.06 46.78 46.92 56.74 50.02 50.54 45.63 46.14 46.54 43.75 43.44 44.14 45.75 48.03 43.45 45.37 45.50 49.33 48.31 48.62 50.16 49.64 48.40 50.23 50.43 50.62 49.96 49.15 46.92 46.65 46.35 46.57 46.11 46.59 45.69 45.45 45.75 44.28 43.60 44.20 45.14 45.05 44.41 43.55 42.86 44.55 46.15 45.88 45.84 45.09
52.66 51.50 49.64 48.52 48.54 46.48 53.69 50.44 52.41 49.97 47.46 45.55 43.81 41.00 42.07 42.81 45.26 42.70 41.52 45.23 46.28 49.53 49.17 50.51 48.70 47.35 48.97 49.76 47.56 48.59 49.85 50.18 47.99 47.49 47.92 46.22 45.00 45.85 45.93 45.68 45.71 45.70 45.55 45.42 45.32 45.16 45.08 44.99 43.62 44.65 44.74 44.50 44.28 44.08
45.93 46.08 47.95 39.27 52.97 49.63 47.91 48.28 47.47 46.43 43.38 44.71 42.82 42.28 42.84 45.84 41.03 39.24 41.19 45.50 45.51 46.56 48.66 50.45 50.56 46.85 45.11 46.36 47.71 47.95 50.42 48.55 46.38 46.31 47.04 47.16 46.08 46.06 45.35 46.16 45.87 45.82 46.37 44.95 44.29 44.33 44.45 44.91 44.64 44.65 44.52 44.10 43.33 43.27
41.59 51.06 44.85 50.40 50.40 48.41 48.02 45.74 46.38 45.12 45.62 44.29 44.31 46.39 47.15 44.06 40.64 38.49 41.80 45.37 45.77 47.08 48.13 49.22 48.94 47.35 46.94 47.41 46.45 46.19 47.08 49.00 48.35 45.20 46.54 46.65 45.84 44.78 43.92 43.11 42.84 43.65 46.43 45.70 44.35 44.35 44.38 44.56 44.42 44.57 43.97 43.88 40.28 43.21
42.29 48.95 51.91 56.23 52.65 50.74 48.81 49.37 49.68 47.60 45.17 43.59 45.01 45.12 44.10 39.79 40.24 43.27 47.35 48.70 47.43 49.02 52.05 51.66 51.48 48.45 46.69 46.46 47.36 48.67 48.76 48.57 48.06 46.65 47.82 47.32 46.95 46.17 45.06 43.58 43.18 44.46 46.31 46.45 46.00 45.65 44.68 44.36 44.10 44.42 43.88 44.52 44.63 44.46
51.70 51.28 45.99 48.81 49.06 50.19 46.06 45.73 45.40 45.12 46.14 48.90 47.66 42.70 41.66 41.93 42.69 47.56 48.61 50.35 51.03 51.33 51.08 51.43 52.86 50.32 48.12 47.76 47.74 47.74 47.54 47.88 48.61 48.38 47.74 47.55 47.73 47.41 47.30 46.88 47.51 41.50 46.23 47.46 46.60 46.29 45.91 45.62 45.50 45.46 45.09 44.76 44.73 46.02
50.25 50.68 49.94 46.64 47.39 47.28 48.35 46.85 46.44 48.41 51.38 49.60 45.98 44.16 45.30 48.74 50.34 49.76 50.30 51.18 51.77 50.98 49.54 49.06 49.30 49.08 48.84 49.22 48.62 48.27 47.99 47.28 46.00 44.80 44.03 42.97 43.74 45.04 47.69 47.32 46.07 46.18 46.62 46.34 41.87 44.07 47.60 45.91 45.79 45.31 45.79 45.27 45.52 46.07
49.71 51.83 48.10 47.02 45.60 44.78 47.76 50.91 48.85 51.03 50.80 50.48 49.94 48.71 48.25 49.40 51.08 52.84 51.93 50.69 49.59 49.35 50.11 49.79 49.02 47.72 45.89 45.73 46.18 47.58 48.86 48.74 48.52 46.78 45.14 44.45 44.97 47.33 48.35 48.19 47.11 47.39 47.83 47.89 47.28 46.32 40.31 42.33 44.06 45.08 44.34 44.31 44.82 44.93
52.50 50.57 48.26 47.55 46.23 48.81 49.59 51.14 52.00 52.04 50.47 50.00 50.43 47.80 47.32 48.97 50.67 52.39 52.39 52.56 51.32 51.22 49.73 48.70 48.15 48.58 47.60 46.58 46.49 46.04 45.87 48.79 50.15 49.13 47.84 48.86 48.52 48.54 48.97 48.94 49.38 48.85 48.62 47.67 47.20 47.01 46.25 44.94 45.77 46.02 45.52 45.42 45.27 44.19
50.58 49.24 47.41 45.87 46.48 50.57 51.76 50.37 49.03 49.29 48.92 49.52 47.98 49.37 49.01 48.30 46.50 49.49 52.40 52.59 51.33 50.14 49.30 49.06 48.25 47.91 50.29 49.70 49.43 48.65 44.27 48.86 48.59 49.42 51.22 48.67 48.59 49.28 48.69 48.63 49.01 49.42 48.76 48.10 47.85 47.45 47.42 46.97 46.03 46.14 45.91 46.56 46.99 46.80
51.40 49.53 49.93 48.09 47.05 46.81 48.99 49.05 47.64 47.16 48.49 47.68 48.63 49.20 48.68 48.07 46.41 51.98 53.78 54.17 52.70 51.83 51.58 51.66 51.73 50.92 52.43 51.82 50.28 49.24 48.76 48.82 43.80 38.89 39.19 39.85 39.38 41.65 45.76 47.95 47.71 47.98 47.93 47.37 47.15 47.02 46.62 46.51 46.00 46.99 46.68 46.62 46.16 45.93
MSLP
1016.88 1016.67 1016.40 1016.28 1015.86 1015.87 1015.72 1015.67 1016.03 1016.49 1016.70 1017.10 1017.07 1017.07 1017.05 1017.08 1016.95 1016.45 1015.33 1014.41 1014.76 1013.89 1012.47 1012.12 1011.95 1011.87 1011.85 1012.13 1012.39 1013.15 1014.09 1014.62 1015.90 1017.23 1018.68 1018.60 1017.75 1017.19 1016.89 1015.76 1014.32 1013.45 1013.32 1013.09 1012.78 1012.11 1011.60 1010.20 1009.31 1009.89 1011.58 1011.60 1011.32 1010.71
1016.18 1015.98 1015.69 1015.59 1015.43 1015.21 1015.27 1015.41 1015.78 1016.60 1016.83 1016.93 1016.86 1016.82 1016.93 1016.91 1016.96 1016.75 1015.83 1014.19 1014.23 1014.32 1013.07 1012.57 1012.27 1012.38 1012.56 1012.61 1012.74 1013.39 1014.89 1015.89 1017.52 1018.79 1019.91 1019.70 1019.16 1018.01 1017.03 1016.73 1015.92 1015.61 1015.07 1014.39 1013.35 1013.09 1012.73 1011.95 1012.07 1012.08 1011.69 1011.09 1011.37 1011.32
1015.52 1015.30 1015.17 1014.99 1014.91 1014.54 1014.54 1015.00 1015.69 1016.37 1016.63 1016.97 1017.07 1017.02 1017.20 1017.11 1016.98 1016.87 1016.35 1015.02 1014.26 1013.74 1012.84 1012.67 1012.42 1012.64 1012.66 1012.72 1012.78 1013.89 1015.62 1016.77 1018.48 1019.31 1020.08 1020.33 1020.09 1019.33 1018.27 1017.65 1017.03 1016.44 1015.83 1015.24 1014.71 1014.92 1014.15 1013.58 1013.23 1012.81 1012.11 1011.53 1011.56 1012.07
1015.05 1014.75 1014.59 1014.37 1014.48 1014.16 1014.14 1014.73 1015.29 1015.93 1016.38 1016.75 1017.05 1017.19 1017.34 1017.30 1017.17 1017.06 1016.55 1015.15 1014.60 1014.34 1013.18 1012.27 1011.89 1012.64 1012.82 1013.06 1013.88 1014.62 1016.23 1017.45 1018.89 1019.83 1020.58 1020.71 1020.37 1020.01 1019.49 1019.11 1018.75 1018.75 1017.40 1017.53 1016.65 1016.35 1015.37 1015.03 1014.75 1014.59 1013.80 1013.04 1012.98 1012.64
1014.43 1014.33 1014.11 1013.69 1013.74 1013.79 1013.99 1014.79 1015.49 1015.87 1016.18 1016.56 1016.92 1017.11 1017.31 1017.37 1017.27 1017.02 1016.32 1015.35 1014.77 1015.29 1014.27 1012.65 1012.26 1012.55 1013.02 1013.42 1014.55 1015.56 1016.43 1017.61 1019.01 1020.37 1021.03 1021.25 1021.24 1020.90 1020.35 1019.79 1019.43 1019.75 1019.95 1019.78 1018.95 1018.69 1018.20 1017.05 1016.13 1015.88 1015.50 1014.97 1014.23 1013.61
1013.88 1013.71 1013.53 1013.41 1013.33 1013.65 1014.34 1014.91 1015.37 1015.79 1016.09 1016.56 1016.93 1017.09 1017.33 1017.48 1017.45 1017.01 1016.31 1015.89 1015.99 1015.69 1015.07 1013.00 1011.99 1012.48 1013.05 1013.56 1014.67 1015.48 1016.12 1016.95 1017.99 1019.48 1020.73 1021.29 1021.58 1021.75 1021.31 1020.83 1020.47 1020.47 1020.53 1020.36 1019.80 1019.23 1018.61 1017.80 1016.90 1016.62 1016.23 1015.82 1015.13 1014.34
1013.34 1013.20 1013.13 1013.05 1013.35 1013.84 1014.48 1014.91 1015.32 1015.92 1016.29 1016.63 1017.01 1017.18 1017.38 1017.51 1017.53 1017.45 1017.47 1017.35 1016.76 1016.46 1015.54 1013.59 1012.39 1012.55 1012.94 1013.66 1014.55 1015.41 1015.93 1016.80 1017.71 1019.03 1020.17 1020.88 1021.52 1021.79 1021.31 1021.01 1020.49 1020.55 1020.48 1020.22 1019.85 1019.38 1018.47 1017.54 1017.60 1017.43 1017.06 1016.24 1015.33 1014.46
1012.94 1012.73 1012.92 1013.20 1013.79 1014.12 1014.51 1015.01 1015.55 1016.15 1016.63 1016.95 1017.15 1017.26 1017.47 1017.64 1017.63 1017.25 1017.22 1017.22 1016.98 1016.41 1015.27 1014.10 1012.73 1012.62 1012.66 1013.39 1014.26 1015.13 1016.47 1017.25 1017.86 1018.53 1019.36 1020.15 1021.26 1021.37 1021.08 1020.69 1020.57 1020.50 1020.34 1019.99 1019.67 1018.98 1018.29 1017.80 1017.79 1017.87 1017.43 1016.76 1016.10 1015.64
1012.47 1012.56 1013.12 1013.66 1014.19 1014.53 1015.05 1015.49 1015.91 1016.51 1016.97 1017.28 1017.40 1017.46 1017.48 1017.73 1017.41 1017.29 1017.26 1017.10 1016.79 1016.73 1015.61 1014.05 1013.06 1012.49 1012.58 1013.09 1013.75 1015.19 1016.07 1017.12 1017.33 1017.86 1018.21 1019.20 1019.69 1019.98 1019.90 1020.15 1020.79 1020.80 1020.53 1020.22 1019.66 1018.97 1018.48 1018.29 1018.47 1018.15 1017.73 1017.07 1017.22 1016.59
1012.97 1013.21 1013.65 1014.27 1014.67 1014.84 1015.39 1015.77 1016.15 1016.79 1017.31 1017.48 1017.51 1017.64 1017.60 1017.61 1017.74 1017.60 1017.47 1017.10 1016.71 1016.07 1015.77 1014.60 1013.07 1012.17 1012.03 1012.55 1013.66 1015.55 1016.49 1016.71 1016.97 1016.92 1017.12 1018.11 1018.87 1019.26 1019.73 1020.50 1021.01 1020.91 1020.58 1020.25 1019.83 1019.62 1019.35 1018.95 1019.09 1018.81 1018.59 1018.13 1018.01 1017.26
1013.34 1013.85 1014.15 1014.70 1015.07 1015.40 1015.79 1016.04 1016.50 1017.27 1017.57 1017.40 1016.99 1017.59 1018.05 1017.75 1017.57 1017.20 1017.06 1016.94 1016.43 1015.93 1015.14 1013.93 1012.98 1012.22 1011.99 1012.39 1013.86 1014.83 1015.62 1016.17 1016.50 1016.45 1016.81 1018.03 1018.59 1019.14 1019.79 1020.55 1021.15 1021.13 1020.88 1020.69 1020.61 1020.62 1020.40 1020.10 1019.87 1019.39 1018.81 1018.36 1018.28 1017.66
1013.79 1014.33 1014.77 1015.17 1015.45 1015.78 1015.92 1016.25 1016.74 1017.00 1016.69 1016.75 1016.57 1017.45 1017.64 1017.61 1017.33 1017.05 1016.70 1016.38 1015.95 1014.93 1013.57 1012.98 1012.39 1012.21 1011.99 1012.23 1013.37 1014.27 1014.85 1015.64 1015.87 1015.99 1016.96 1017.87 1018.27 1018.58 1019.38 1020.11 1020.82 1020.99 1021.09 1021.06 1020.95 1020.91 1020.68 1020.38 1020.11 1019.53 1019.29 1019.09 1018.99 1018.73
1014.31 1014.86 1015.21 1015.60 1015.86 1016.11 1016.27 1016.65 1017.17 1017.20 1016.71 1016.36 1016.29 1016.76 1017.06 1017.16 1016.80 1016.19 1015.63 1015.19 1014.71 1013.64 1012.85 1012.47 1012.65 1012.48 1012.52 1012.86 1013.29 1014.13 1014.67 1015.19 1015.36 1016.07 1016.83 1017.63 1017.95 1018.36 1018.65 1019.56 1020.19 1020.65 1021.03 1021.27 1021.56 1021.36 1021.12 1020.83 1020.24 1019.49 1019.63 1019.88 1019.47 1019.35
1014.84 1015.27 1015.64 1015.96 1016.15 1016.33 1016.71 1017.27 1017.61 1017.21 1016.81 1016.22 1016.11 1016.37 1016.44 1015.74 1014.94 1013.88 1013.35 1012.88 1012.70 1012.51 1012.61 1012.83 1013.05 1013.08 1013.35 1013.62 1013.91 1014.42 1015.06 1015.45 1015.94 1016.35 1017.06 1017.65 1017.84 1018.13 1018.55 1019.12 1019.55 1019.98 1020.29 1020.79 1021.39 1021.53 1021.25 1020.87 1020.74 1020.49 1020.51 1020.37 1020.20 1020.27
1015.33 1015.72 1016.08 1016.32 1016.37 1016.71 1017.23 1017.69 1017.79 1017.21 1016.67 1016.23 1015.80 1015.33 1014.85 1014.15 1013.35 1013.36 1012.36 1012.36 1012.42 1012.53 1012.99 1013.52 1013.84 1014.05 1014.07 1014.34 1014.48 1014.87 1015.51 1016.11 1016.49 1016.68 1016.90 1017.46 1018.01 1018.39 1018.70 1019.11 1019.55 1019.83 1019.83 1019.93 1020.48 1020.77 1021.01 1020.88 1020.77 1020.69 1020.77 1020.15 1020.85 1020.65
1015.68 1015.96 1015.98 1016.36 1016.79 1017.30 1017.82 1018.17 1017.85 1017.16 1016.80 1016.62 1015.97 1015.71 1015.55 1014.37 1014.36 1013.81 1012.82 1012.88 1012.91 1013.06 1013.49 1014.05 1014.80 1015.00 1014.65 1014.87 1015.12 1015.70 1016.11 1016.33 1016.77 1016.74 1017.01 1017.55 1018.09 1018.57 1019.11 1019.34 1019.58 1019.68 1019.56 1019.78 1019.69 1019.82 1019.89 1019.99 1020.02 1020.06 1019.81 1020.03 1020.55 1019.95
1015.98 1015.68 1016.45 1016.82 1017.31 1017.85 1018.17 1018.22 1017.65 1017.15 1017.17 1016.87 1017.02 1016.87 1016.49 1015.93 1015.67 1015.18 1013.90 1013.77 1013.46 1013.84 1014.69 1015.05 1015.36 1015.51 1015.45 1015.81 1016.47 1017.05 1016.86 1016.67 1016.71 1017.27 1017.62 1018.01 1018.48 1018.93 1019.33 1019.56 1019.73 1019.79 1019.81 1019.72 1019.75 1019.77 1019.87 1019.63 1019.48 1019.71 1019.98 1019.95 1019.83 1019.73
1015.82 1016.56 1016.86 1017.30 1017.70 1018.21 1018.34 1018.26 1017.77 1017.42 1017.46 1017.76 1017.89 1017.81 1017.63 1017.15 1016.54 1016.13 1015.55 1014.78 1014.83 1014.91 1015.53 1016.17 1016.65 1016.84 1017.30 1017.33 1017.55 1017.67 1017.77 1017.59 1017.70 1018.07 1018.48 1018.76 1019.07 1019.44 1019.72 1019.96 1020.07 1020.07 1020.03 1019.98 1019.94 1019.81 1019.86 1019.89 1019.66 1019.93 1019.92 1019.65 1019.61 1019.77
1015.84 1016.63 1017.23 1017.54 1017.59 1017.84 1017.62 1017.79 1017.78 1017.51 1017.97 1018.17 1018.29 1018.18 1018.05 1017.81 1017.23 1016.61 1015.84 1014.74 1014.41 1014.87 1015.72 1016.97 1017.69 1018.17 1018.23 1018.27 1018.28 1018.12 1018.03 1018.17 1018.54 1018.99 1019.13 1019.33 1019.59 1019.83 1020.01 1020.07 1020.12 1020.12 1020.17 1020.19 1020.02 1019.93 1020.15 1020.01 1019.98 1020.05 1020.02 1020.05 1020.34 1020.48
1016.58 1017.21 1017.67 1017.93 1017.97 1017.55 1017.28 1017.38 1017.49 1017.08 1017.58 1018.25 1018.29 1018.17 1017.97 1017.58 1016.86 1015.86 1015.02 1014.43 1014.22 1014.62 1015.66 1017.32 1018.14 1018.39 1018.18 1018.02 1017.88 1017.77 1017.98 1018.22 1018.63 1019.01 1019.39 1019.61 1019.71 1019.83 1019.85 1019.76 1019.76 1019.78 1019.93 1020.21 1020.09 1020.07 1020.28 1020.38 1020.15 1020.23 1020.37 1020.59 1020.73 1020.94
1017.38 1017.86 1018.14 1018.11 1017.34 1017.01 1016.37 1016.15 1016.34 1016.22 1017.02 1017.63 1017.92 1017.92 1018.02 1017.51 1016.69 1016.15 1015.64 1015.17 1015.11 1015.45 1016.33 1017.28 1017.63 1017.67 1017.57 1017.39 1017.53 1017.84 1018.09 1018.24 1018.57 1018.74 1019.11 1019.37 1019.43 1019.56 1019.63 1019.62 1019.48 1019.35 1019.42 1019.99 1019.94 1020.23 1020.66 1020.75 1020.65 1020.65 1020.58 1020.47 1020.66 1020.79
1016.69 1017.65 1017.59 1017.45 1016.97 1016.09 1015.56 1015.06 1015.05 1015.31 1015.80 1016.53 1017.23 1017.74 1017.87 1017.61 1017.10 1016.73 1016.52 1016.38 1016.54 1016.48 1016.55 1016.96 1017.39 1017.54 1017.62 1017.67 1017.75 1017.90 1018.08 1018.25 1018.47 1018.65 1018.80 1019.03 1019.25 1019.21 1019.21 1019.29 1019.39 1019.72 1019.82 1019.97 1020.04 1020.35 1021.00 1021.18 1021.13 1021.03 1020.91 1021.08 1021.11 1021.37
1016.91 1016.82 1016.69 1016.34 1015.97 1015.18 1014.51 1014.08 1014.11 1014.55 1014.87 1015.51 1016.08 1016.54 1017.09 1017.15 1017.11 1016.96 1017.02 1017.20 1017.38 1016.95 1017.04 1017.25 1017.40 1017.53 1017.78 1017.86 1017.93 1018.03 1018.12 1018.25 1018.37 1018.43 1018.66 1018.87 1018.93 1018.97 1019.22 1019.48 1019.65 1019.99 1020.19 1020.52 1020.56 1020.77 1021.03 1021.22 1021.30 1021.26 1021.30 1021.48 1021.52 1021.60
1016.53 1016.12 1015.52 1015.33 1014.98 1013.76 1013.03 1012.89 1012.57 1012.97 1013.93 1014.38 1014.66 1015.42 1016.15 1016.57 1016.88 1016.90 1017.22 1017.51 1017.35 1017.27 1017.32 1017.50 1017.57 1017.78 1017.87 1018.01 1017.92 1017.95 1018.04 1018.15 1018.25 1018.28 1018.34 1018.77 1019.14 1019.39 1019.39 1019.71 1019.97 1020.18 1020.32 1020.53 1020.72 1021.00 1021.16 1021.26 1021.36 1021.40 1021.45 1021.50 1021.39 1021.53
1016.04 1015.12 1014.43 1013.38 1012.41 1012.26 1011.28 1011.00 1011.29 1011.63 1012.17 1012.60 1013.17 1014.11 1014.92 1015.59 1015.89 1016.52 1016.90 1017.27 1017.25 1017.23 1017.19 1017.36 1017.25 1017.89 1017.99 1017.81 1017.88 1018.02 1018.01 1017.85 1018.29 1018.54 1018.58 1018.56 1019.01 1019.40 1019.92 1020.17 1020.37 1020.48 1020.40 1020.83 1021.01 1021.14 1021.28 1021.38 1021.49 1021.53 1021.73 1021.72 1021.76 1021.64
1014.27 1012.47 1011.85 1010.42 1010.22 1010.04 1009.58 1009.79 1010.24 1010.77 1010.88 1011.26 1011.85 1012.55 1013.44 1014.02 1014.53 1015.44 1016.11 1016.56 1016.84 1016.90 1017.00 1016.86 1016.71 1016.69 1016.87 1017.37 1017.63 1017.89 1018.13 1018.07 1018.27 1018.75 1019.03 1018.98 1019.19 1019.57 1020.09 1020.54 1020.78 1020.98 1020.90 1021.05 1021.22 1021.29 1021.50 1021.50 1021.49 1021.53 1021.57 1021.67 1021.79 1021.65
1012.11 1010.27 1009.89 1009.71 1009.42 1009.28 1009.07 1009.47 1009.68 1009.80 1009.79 1010.37 1010.87 1011.33 1011.75 1012.15 1013.26 1014.57 1015.43 1016.04 1016.47 1016.49 1016.52 1016.49 1016.26 1016.35 1016.75 1017.27 1017.69 1017.97 1018.27 1018.58 1018.85 1019.17 1019.41 1019.61 1019.91 1020.25 1020.52 1020.77 1021.01 1021.19 1021.06 1021.17 1021.25 1021.30 1021.35 1021.42 1021.49 1021.50 1021.55 1021.44 1021.56 1021.50
1009.63 1009.30 1009.32 1009.43 1009.19 1009.35 1009.45 1009.47 1009.60 1009.79 1010.00 1010.07 1010.17 1010.90 1011.49 1012.08 1013.11 1014.19 1014.94 1015.58 1015.87 1016.17 1016.29 1016.33 1016.31 1016.30 1016.73 1017.34 1017.83 1018.34 1018.70 1018.93 1019.03 1019.16 1019.50 1019.83 1020.07 1020.35 1020.71 1020.89 1021.00 1021.11 1021.13 1021.17 1021.17 1021.19 1021.15 1021.15 1021.16 1021.13 1021.17 1021.15 1021.06 1020.94
1009.00 1009.13 1009.38 1009.45 1009.50 1009.82 1009.83 1009.73 1009.76 1010.24 1010.49 1010.35 1010.41 1011.31 1012.27 1012.89 1013.29 1013.92 1014.65 1014.95 1015.33 1015.60 1015.89 1016.00 1016.20 1016.55 1017.05 1017.32 1017.73 1018.07 1018.32 1018.44 1018.63 1018.93 1019.11 1019.43 1019.70 1019.99 1020.13 1020.45 1020.75 1020.97 1021.07 1021.10 1020.97 1020.97 1020.92 1021.00 1021.01 1020.97 1020.91 1020.93 1020.87 1020.68
1008.75 1008.75 1009.01 1009.32 1009.45 1009.78 1010.29 1010.33 1010.66 1010.81 1010.92 1011.17 1011.61 1012.32 1012.90 1013.38 1013.76 1014.07 1014.19 1014.57 1014.89 1015.05 1015.16 1015.41 1015.97 1016.33 1016.72 1017.09 1017.39 1017.59 1017.56 1017.87 1018.16 1018.48 1018.77 1018.96 1019.09 1019.20 1019.35 1019.64 1020.17 1020.30 1020.27 1020.47 1020.39 1020.57 1020.77 1021.03 1020.93 1020.64 1020.65 1020.73 1020.57 1020.38
1008.41 1008.46 1008.81 1009.33 1009.83 1010.30 1010.55 1010.71 1010.86 1010.89 1011.15 1011.43 1011.79 1012.41 1013.07 1013.59 1013.92 1014.09 1014.23 1014.32 1014.50 1014.57 1014.86 1015.11 1015.58 1015.86 1016.03 1016.42 1016.95 1017.50 1017.55 1018.09 1018.42 1018.89 1019.12 1019.05 1019.26 1019.49 1019.57 1019.68 1019.52 1019.69 1019.74 1019.77 1019.64 1019.77 1020.15 1020.37 1020.23 1020.16 1020.05 1020.14 1020.19 1020.13
1008.12 1008.15 1008.64 1009.17 1010.00 1010.51 1010.60 1010.63 1010.70 1010.89 1011.04 1011.36 1011.72 1012.15 1012.75 1013.10 1013.28 1013.52 1013.60 1013.82 1014.11 1014.17 1014.28 1014.55 1014.95 1015.43 1015.63 1015.89 1016.50 1017.39 1017.32 1018.17 1018.87 1019.39 1019.63 1019.83 1020.01 1020.11 1019.89 1019.77 1019.68 1019.62 1019.57 1019.43 1019.29 1019.28 1019.38 1019.58 1019.70 1019.75 1019.86 1019.89 1019.97 1019.93
1007.69 1008.10 1008.33 1009.11 1009.75 1010.22 1010.39 1010.33 1010.44 1010.60 1010.71 1011.01 1011.19 1011.29 1011.64 1011.83 1011.86 1011.91 1012.71 1013.14 1013.56 1013.77 1013.87 1014.25 1014.45 1014.85 1015.45 1015.85 1016.43 1017.06 1017.73 1018.58 1019.50 1019.82 1020.11 1020.30 1020.48 1020.51 1020.42 1020.02 1020.10 1020.17 1019.98 1019.77 1019.62 1019.19 1019.31 1019.46 1019.63 1019.62 1019.69 1019.74 1019.78 1019.81
Wind_Speed
16 16 15 14 12 13 11 10 9 10 7 6 6 4 5 5 6 4 5 1 1 4 2 4 3 4 4 4 2 3 5 3 4 4 3 4 3 3 1 8 9 4 5 4 4 3 6 17 9 8 4 4 7 12
15 15 14 13 12 11 11 9 11 8 7 8 8 5 5 2 5 6 3 1 1 3 2 5 5 7 6 6 4 5 4 6 3 4 2 3 3 5 6 3 9 4 5 3 3 4 3 10 12 6 5 6 7 8
14 14 14 12 11 10 9 12 14 9 9 8 6 4 4 3 4 4 4 5 2 3 3 3 5 5 3 4 6 4 4 5 4 3 3 1 3 4 4 5 5 6 10 5 2 12 9 12 13 13 14 11 7 9
14 14 13 11 11 9 12 17 16 13 10 8 5 3 2 3 6 6 3 5 2 4 4 5 8 6 4 7 15 14 9 10 6 3 3 1 2 4 2 4 4 3 6 9 4 11 6 14 13 14 14 16 13 7
13 13 12 10 10 9 16 15 11 10 9 7 6 5 1 3 6 4 5 4 3 2 4 1 7 8 4 8 15 14 12 8 4 3 2 0 2 4 3 3 3 5 5 4 3 10 6 9 9 13 11 13 9 10
12 11 10 9 7 15 16 12 10 9 8 7 7 5 2 2 6 4 1 4 8 6 3 2 3 8 8 9 14 12 7 5 4 4 2 1 2 1 2 2 2 4 4 5 4 14 14 16 8 11 10 12 13 7
10 9 7 3 16 18 16 12 11 10 10 9 8 6 4 1 2 2 3 2 6 3 3 4 4 7 11 8 7 6 5 2 3 3 3 3 2 2 2 2 3 6 8 8 8 10 11 2 4 8 9 12 14 2
9 6 5 16 16 14 13 12 12 11 10 10 9 7 4 2 7 2 1 5 4 3 3 4 2 4 7 4 4 4 3 3 2 2 3 3 4 3 2 7 5 8 9 5 10 10 3 4 6 6 8 7 13 9
2 12 17 16 13 12 12 12 12 12 11 10 8 6 2 2 1 2 3 4 3 2 3 3 2 2 6 6 4 3 4 3 2 4 4 7 4 2 1 2 6 6 5 7 11 7 6 5 5 6 8 11 9 8
13 17 17 14 12 13 13 14 15 13 11 10 3 3 3 3 4 2 2 2 2 2 3 4 3 4 6 6 3 4 4 4 3 4 4 1 2 5 10 10 4 5 6 5 5 5 8 7 7 7 6 7 7 7
16 16 14 11 12 13 15 16 15 13 6 3 2 2 1 3 3 3 1 2 2 2 3 4 5 0 4 4 3 3 3 3 3 4 4 2 2 5 13 10 8 8 8 7 5 5 8 8 7 6 5 8 9 9
14 13 11 11 13 14 16 17 17 6 1 4 6 5 2 1 2 1 2 3 4 4 5 4 4 2 1 2 4 4 4 4 3 4 3 3 3 8 14 13 11 8 10 13 10 7 8 9 6 6 9 10 8 7
12 10 10 11 13 14 14 13 11 8 7 3 2 4 2 3 2 4 5 3 3 4 3 3 3 3 2 1 2 1 2 2 4 3 2 3 5 6 6 13 12 9 10 10 6 8 5 5 7 13 13 11 11 8
11 9 9 11 12 12 10 9 1 7 4 2 3 2 4 5 5 6 7 5 4 2 4 3 2 2 3 1 2 2 2 1 2 2 3 6 6 7 7 7 7 11 10 13 9 5 3 2 4 8 9 8 12 9
10 9 9 10 12 11 10 7 4 4 2 3 4 4 7 5 2 6 2 2 2 4 4 3 3 2 1 1 2 2 4 2 4 3 3 8 7 7 6 8 7 6 6 4 12 11 8 7 5 7 8 10 7 6
12 12 4 13 12 12 10 3 4 2 1 2 4 6 9 5 6 4 1 5 2 5 4 4 2 1 4 1 1 2 4 4 2 3 6 7 7 6 9 7 6 5 5 2 3 5 4 4 5 6 5 6 7 6
8 2 10 14 14 12 8 2 2 1 2 4 4 2 6 2 6 6 7 5 4 4 3 1 4 3 1 3 3 1 3 6 6 7 5 7 6 7 8 6 6 5 5 4 4 6 5 1 1 4 4 1 4 4
2 8 15 14 10 6 2 3 2 1 4 3 3 5 6 6 6 5 6 4 2 2 2 3 4 7 4 2 3 4 3 7 9 8 7 7 8 8 7 7 5 5 5 4 4 2 4 5 4 2 1 2 2 1
11 11 14 15 3 2 3 2 1 1 3 1 1 2 1 2 4 5 7 5 2 4 6 3 4 2 2 3 3 3 5 7 7 6 6 6 7 7 7 5 5 5 5 3 2 2 2 2 3 4 4 6 6 6
16 13 11 4 4 1 3 2 2 1 3 1 1 2 2 3 5 4 3 3 3 3 4 4 2 5 6 5 3 3 6 6 7 7 6 4 4 5 3 3 2 2 4 5 5 4 4 2 1 3 4 4 4 5
8 5 3 2 3 5 3 4 3 2 5 2 1 1 2 4 5 6 8 6 8 6 5 4 6 3 3 3 5 7 5 5 5 4 5 4 4 5 4 4 4 3 4 6 3 5 8 4 4 4 1 1 4 2
5 16 3 5 3 3 4 3 2 5 4 5 4 3 1 2 3 4 4 6 6 3 5 7 6 5 3 4 5 6 5 6 6 4 6 3 2 2 2 2 5 4 4 4 4 7 6 3 3 4 3 3 4 2
10 6 3 3 3 1 2 5 4 7 5 6 6 6 3 1 1 3 2 3 1 2 6 5 5 7 6 4 5 4 3 3 3 4 4 3 3 3 4 4 4 4 4 5 3 5 3 1 3 4 4 4 4 4
1 3 3 3 5 4 4 5 4 6 5 5 3 4 4 3 2 1 3 0 3 1 4 4 5 5 4 2 3 3 3 4 2 3 4 6 4 1 5 4 4 4 3 3 4 3 3 2 4 2 3 4 4 4
2 4 4 4 5 6 6 7 6 3 4 3 4 5 5 4 4 3 3 3 5 3 3 3 2 9 7 4 2 2 1 1 7 4 2 4 6 4 6 4 4 4 4 5 3 4 3 5 3 4 4 4 5 6
4 6 4 4 6 4 4 5 6 4 6 5 4 5 5 5 5 5 6 6 5 5 4 2 4 4 4 8 5 4 3 3 5 6 4 5 6 5 6 4 4 4 4 4 4 4 6 3 4 5 4 3 2 4
4 3 2 1 4 1 1 4 3 1 1 2 4 5 4 1 5 4 6 6 4 4 3 3 2 4 6 7 5 4 5 6 6 6 5 6 8 7 5 4 4 2 3 4 3 2 2 2 1 1 2 1 1 3
2 3 4 2 4 3 3 2 1 1 2 3 1 3 3 4 4 5 8 8 7 6 5 3 3 4 7 7 7 6 5 5 5 6 6 6 5 6 6 3 3 3 2 3 3 3 3 2 3 3 4 4 4 4
2 4 4 2 3 2 3 4 3 3 4 6 4 5 3 4 7 8 8 7 7 7 7 6 4 7 4 4 7 7 7 7 7 8 9 7 6 6 8 7 6 5 4 5 9 8 5 1 3 4 5 4 4 3
3 4 2 1 1 2 3 4 5 3 4 6 6 8 7 6 5 5 5 6 5 5 5 6 6 6 7 6 6 5 5 5 3 4 3 4 4 4 3 5 8 9 8 8 8 8 6 3 6 7 5 4 6 5
4 2 3 3 3 4 4 4 3 3 5 4 6 7 7 4 5 4 4 4 5 5 6 7 7 5 6 7 7 4 4 6 7 7 6 5 7 5 4 3 2 4 2 2 4 5 6 6 5 1 5 5 5 5
5 4 3 3 4 4 4 4 5 3 4 3 5 7 6 4 6 7 6 6 5 4 5 7 7 6 5 6 7 4 4 8 7 3 3 6 6 5 5 5 5 1 3 4 4 4 5 4 1 2 1 3 1 0
3 4 4 6 4 4 5 2 2 2 3 4 3 5 7 6 5 3 7 7 7 6 6 5 5 7 7 5 8 7 9 9 12 12 12 9 6 3 2 3 6 7 7 7 7 5 7 7 5 4 4 5 5 6
Wind_Direction
289 288 287 283 275 274 259 224 194 185 191 226 227 243 273 308 357 345 281 135 310 318 33 15 346 25 346 354 24 85 50 29 33 48 41 327 283 161 218 306 303 181 164 218 233 256 272 344 39 55 221 160 18 7
289 287 285 281 278 274 258 213 163 172 197 213 211 217 246 316 359 345 283 195 33 251 44 345 8 23 31 342 340 45 86 62 12 92 120 287 334 319 342 297 2 319 5 308 16 115 74 41 67 60 349 66 57 19
290 289 284 282 277 272 219 163 151 171 207 209 205 209 258 327 355 5 299 302 252 267 227 168 211 194 275 16 3 108 45 108 78 8 144 168 246 351 321 57 302 357 21 2 357 16 41 36 26 8 12 22 40 44
290 289 290 289 278 259 173 158 165 185 183 184 188 190 274 329 342 350 317 323 329 308 259 147 100 118 205 101 82 90 102 69 99 60 60 20 296 24 354 317 324 28 308 323 25 17 358 34 21 4 360 9 12 41
289 292 291 286 274 209 153 156 164 162 161 165 174 178 225 345 336 307 259 302 16 359 321 344 141 144 194 118 116 117 122 122 122 101 88 128 327 346 6 291 39 4 30 357 331 315 335 331 351 10 351 0 350 22
289 288 289 284 253 146 139 150 157 149 148 154 159 153 122 34 344 284 195 49 12 352 278 254 77 144 168 142 130 158 164 137 120 125 143 163 81 265 336 299 94 3 348 294 281 311 303 294 315 3 345 348 341 341
289 285 281 228 137 137 146 162 144 143 146 148 145 138 121 49 284 329 9 343 334 317 262 279 149 160 166 154 169 164 174 101 86 116 136 146 189 189 277 282 347 323 314 304 275 277 284 22 6 354 350 338 344 37
280 259 195 136 140 148 141 138 135 138 140 135 138 134 131 334 283 270 89 263 297 266 284 281 131 135 170 164 191 95 107 144 159 156 124 150 122 220 258 259 276 326 322 287 344 315 265 314 24 9 346 6 357 339
157 136 132 131 132 128 122 129 132 132 133 139 140 137 145 233 241 60 285 295 267 299 303 298 166 139 158 213 126 60 98 160 175 190 202 152 156 204 339 104 47 331 311 303 314 297 311 39 17 19 17 31 349 337
118 121 122 123 130 129 134 135 131 132 138 141 183 201 144 44 334 246 191 187 239 203 237 251 255 220 191 176 143 113 173 187 199 209 109 124 103 118 90 88 59 348 358 358 356 34 360 8 18 14 13 41 335 314
123 127 130 134 134 136 139 134 127 122 133 215 192 88 286 270 248 212 252 184 191 237 238 239 254 179 266 162 107 153 186 165 181 227 120 158 148 122 130 122 100 58 41 33 56 44 34 26 0 339 342 32 351 345
124 121 132 140 142 146 143 141 163 201 109 307 114 139 160 218 228 231 195 201 208 244 202 212 218 213 53 55 149 195 167 147 207 170 107 117 155 134 147 148 137 118 84 63 58 74 43 10 336 43 49 30 10 348
117 126 135 143 147 147 151 163 174 344 301 212 195 144 160 159 180 205 207 233 212 213 226 146 161 205 117 268 20 86 183 183 142 123 105 139 141 135 119 146 145 150 125 101 69 61 47 3 28 57 52 23 20 12
124 135 145 151 151 149 150 150 292 332 278 251 163 198 216 190 235 206 213 203 196 149 144 142 101 39 38 11 191 202 122 109 45 105 153 147 145 130 117 109 144 162 161 161 164 178 117 57 24 50 64 38 26 348
124 133 140 146 143 137 138 143 289 306 300 266 223 235 212 314 301 334 225 133 100 122 114 109 68 350 179 265 225 162 151 124 163 192 116 139 135 120 119 111 96 85 107 136 165 171 180 159 168 175 169 124 101 304
149 148 128 134 131 123 131 132 271 281 275 271 321 347 344 342 0 339 269 104 97 110 83 60 112 219 206 230 227 24 111 176 126 99 126 124 127 127 115 115 121 121 96 12 49 110 97 108 135 156 104 132 172 149
190 69 134 120 125 137 176 294 263 278 311 350 354 0 326 4 10 358 354 24 12 52 33 107 191 205 20 71 78 12 344 109 106 104 98 116 130 117 118 125 121 112 128 68 75 53 34 25 110 91 68 80 101 128
69 133 127 131 139 127 195 226 286 306 62 33 4 16 33 16 10 1 334 5 54 95 90 43 13 28 31 39 34 76 75 62 68 78 86 92 98 112 118 115 109 115 85 52 3 27 50 350 41 128 257 243 170 227
132 143 150 171 148 253 178 161 258 94 72 68 351 348 44 262 269 263 271 272 144 121 109 72 61 50 31 56 100 102 109 109 100 92 86 81 100 119 130 152 173 160 156 179 278 75 128 2 30 54 20 33 49 44
114 138 159 194 353 258 161 147 214 210 88 146 239 322 301 285 286 269 12 18 118 130 87 75 122 149 158 197 202 111 97 109 117 119 121 131 131 115 125 147 161 223 185 180 236 225 160 219 37 101 80 77 65 53
123 152 188 279 241 223 281 158 186 131 131 143 216 0 342 323 32 16 38 46 64 68 97 137 159 154 66 58 100 111 113 136 154 139 145 151 174 162 191 234 230 258 95 166 155 78 66 54 7 36 86 126 91 106
94 154 228 191 261 231 241 208 160 139 153 140 148 118 54 357 17 11 359 55 44 85 106 108 123 135 128 85 83 85 104 90 113 110 91 100 145 155 107 72 76 68 38 38 54 90 95 59 357 76 29 43 100 50
161 168 232 217 247 213 246 148 176 169 145 167 161 136 153 100 30 339 80 43 103 15 87 77 81 93 111 124 135 133 87 123 212 151 146 158 104 88 100 66 72 98 66 52 36 92 90 86 69 14 44 353 124 222
323 222 224 198 201 282 165 191 193 163 130 177 142 115 143 139 141 28 94 174 106 91 112 142 148 153 144 120 192 150 154 171 214 49 101 112 104 341 83 78 83 57 66 80 72 71 88 76 94 25 22 9 3 16
235 245 195 255 204 195 213 173 145 152 135 102 122 134 149 176 152 152 140 190 151 187 191 197 292 146 213 109 54 110 278 306 127 182 76 83 111 103 79 56 68 57 63 75 37 68 35 68 54 40 65 37 20 344
242 211 166 275 153 213 183 165 123 175 172 169 123 144 153 183 169 151 172 166 168 203 221 256 273 157 140 157 138 109 77 27 84 83 41 53 60 90 122 114 97 55 62 62 60 49 62 357 52 17 63 103 149 318
252 196 143 317 308 109 133 53 106 252 120 110 149 183 197 236 93 94 126 143 174 198 169 255 341 58 106 100 91 86 91 71 74 89 86 80 79 70 68 87 103 85 97 96 84 114 151 75 37 123 278 235 138 251
284 45 122 41 30 45 18 71 84 106 65 331 11 39 39 27 79 129 147 163 172 162 185 215 261 89 97 121 115 105 102 124 159 144 127 122 128 133 138 136 149 170 338 165 195 198 196 251 252 229 239 236 232 236
172 83 92 146 119 81 356 360 54 63 351 328 69 80 76 54 109 124 151 166 162 178 183 179 142 110 124 144 132 156 172 181 171 169 161 157 172 177 172 167 174 188 207 207 228 242 249 238 341 319 321 323 323 306
176 155 104 72 104 93 57 30 74 52 57 69 87 99 103 105 115 148 153 147 170 183 175 153 139 162 155 163 165 192 183 165 174 153 138 147 151 138 124 150 184 202 215 220 204 220 226 258 267 266 250 221 256 271
157 175 102 117 112 110 114 111 135 151 124 121 120 117 118 131 145 170 174 181 189 199 168 161 157 204 174 161 151 182 177 103 94 72 38 49 75 63 49 359 317 88 63 320 283 154 195 212 237 189 59 67 31 21
194 172 136 127 129 128 172 184 177 163 157 168 150 148 147 172 185 180 196 183 204 218 191 171 166 177 204 153 134 121 82 105 114 134 101 62 62 32 1 342 354 222 211 255 251 173 179 207 100 104 26 77 38 231
146 168 102 93 125 174 198 234 164 231 178 187 217 183 183 197 224 145 162 185 187 205 207 177 185 159 136 131 137 121 112 106 111 110 102 100 104 83 318 324 4 353 1 346 340 18 62 49 19 42 35 29 16 15